Massena, NY

9:22 AM EST on December 07, 2019 (GMT -0500)
Massena International-Richards

Weather History for KMSS - October, 2019

Change the Weather History Date:

Sunday, October 6, 2019

  Actual Average Record
Temperature  
Mean Temperature 53 °F 50 °F  
Max Temperature 67 °F 60 °F 81 °F (2005)
Min Temperature 39 °F 40 °F 15 °F (1984)
Degree Days  
Heating Degree Days 12 15  
Month to date heating degree days 93 85  
Since 1 July heating degree days 308 385  
Cooling Degree Days 0 0  
Month to date cooling degree days 0 0  
Year to date cooling degree days 398 361  
Growing Degree Days 2 (Base 50)    
Moisture  
Dew Point 48 °F    
Average Humidity 79    
Maximum Humidity 93    
Minimum Humidity 65    
Precipitation  
Precipitation 0.01 in 0.12 in 1.44 in (2010)
Month to date precipitation 0.97 0.66  
Year to date precipitation 24.68 26.85  
Sea Level Pressure  
Sea Level Pressure 30.09 in    
Wind  
Wind Speed 8 mph (South)    
Max Wind Speed 20 mph    
Max Gust Speed 26 mph    
Visibility 10 miles    
Events Rain    
T = Trace of Precipitation, MM = Missing Value Source: NWS Daily Summary

Daily Weather History Graph

Daily Weather History Graph

Search for Another Location

Airport or City:

Astronomy

Oct. 06, 2019 Rise Set
Actual Time 7:03 AM EDT 6:31 PM EDT
Civil Twilight 6:34 AM EDT 7:00 PM EDT
Nautical Twilight 6:00 AM EDT 7:34 PM EDT
Astronomical Twilight 5:25 AM EDT 8:08 PM EDT
Moon 3:27 PM EDT (10/6) No Moon Set
Length of Visible Light 12h 26m
Length of Day
11h 27m
First Quarter, 59% of the Moon is Illuminated
Oct 6
First Quarter
Oct 13
Full
Oct 21
Last Quarter
Oct 27
New
Nov 4
First Quarter

Hourly Weather History & Observations

Time (EDT) Temp. Windchill Dew Point Humidity Pressure Visibility Wind Dir Wind Speed Gust Speed Precip Events Conditions
12:53 AM 39.0 °F 36.8 °F 35.1 °F 86% 30.25 in 10.0 mi NE 3.5 mph - N/A   Clear
1:53 AM 42.1 °F 37.7 °F 36.0 °F 79% 30.23 in 10.0 mi East 6.9 mph - N/A   Clear
2:53 AM 43.0 °F 40.3 °F 35.1 °F 74% 30.20 in 10.0 mi SSE 4.6 mph - N/A   Clear
3:53 AM 45.0 °F 42.6 °F 35.1 °F 68% 30.18 in 10.0 mi SSE 4.6 mph - N/A   Clear
4:53 AM 44.1 °F 41.5 °F 36.0 °F 73% 30.15 in 10.0 mi SE 4.6 mph - N/A   Partly Cloudy
5:53 AM 46.9 °F - 37.0 °F 68% 30.13 in 10.0 mi SSE 4.6 mph - N/A   Scattered Clouds
6:53 AM 39.0 °F - 37.0 °F 93% 30.15 in 10.0 mi Calm Calm - N/A   Clear
7:53 AM 43.0 °F - 39.0 °F 86% 30.15 in 10.0 mi Calm Calm - N/A   Scattered Clouds
8:53 AM 50.0 °F - 43.0 °F 77% 30.14 in 10.0 mi Calm Calm - N/A   Overcast
9:53 AM 54.0 °F - 46.0 °F 75% 30.12 in 10.0 mi South 3.5 mph - N/A   Mostly Cloudy
10:53 AM 61.0 °F - 50.0 °F 67% 30.10 in 10.0 mi SSW 10.4 mph - N/A   Overcast
11:53 AM 62.1 °F - 51.1 °F 67% 30.07 in 10.0 mi SSW 12.7 mph - 0.00 in   Overcast
12:53 PM 62.1 °F - 54.0 °F 75% 30.07 in 10.0 mi SSW 9.2 mph - 0.01 in Rain Light Rain
1:53 PM 64.9 °F - 54.0 °F 68% 30.04 in 10.0 mi SSW 10.4 mph - 0.00 in   Mostly Cloudy
2:53 PM 64.9 °F - 54.0 °F 68% 30.04 in 10.0 mi SSW 12.7 mph - N/A   Overcast
3:53 PM 66.0 °F - 54.0 °F 65% 30.01 in 10.0 mi South 16.1 mph - N/A   Overcast
4:53 PM 66.0 °F - 55.0 °F 68% 30.01 in 10.0 mi SSW 12.7 mph - N/A   Overcast
5:53 PM 64.9 °F - 55.0 °F 70% 30.01 in 10.0 mi SSW 10.4 mph - 0.00 in Rain Light Rain
6:53 PM 64.0 °F - 55.0 °F 73% 30.02 in 10.0 mi SSW 8.1 mph - 0.00 in   Overcast
7:53 PM 62.1 °F - 55.9 °F 80% 30.02 in 10.0 mi SSW 13.8 mph - 0.00 in   Overcast
8:53 PM 63.0 °F - 57.0 °F 81% 30.02 in 10.0 mi SSW 11.5 mph - N/A   Overcast
9:53 PM 64.0 °F - 57.0 °F 78% 30.02 in 10.0 mi SSW 12.7 mph - N/A   Mostly Cloudy
10:25 PM 64.0 °F - 57.0 °F 78% 30.03 in 10.0 mi SW 11.5 mph 19.6 mph N/A   Mostly Cloudy
10:53 PM 64.0 °F - 57.0 °F 78% 30.04 in 10.0 mi SW 8.1 mph - N/A   Overcast
11:02 PM 64.0 °F - 57.0 °F 78% 30.03 in 10.0 mi SW 8.1 mph - N/A   Overcast
11:53 PM 64.0 °F - 57.9 °F 80% 30.04 in 10.0 mi SW 13.8 mph - N/A   Scattered Clouds